Overview Statistics Trail Chart Weather Telemetry Raw packets
 

This is the latest recevied weather packets stored in our database for station/object K3RUP-1. If no packets are shown the sender has not sent any weather packets the latest 10 day(s).

<< 82 83 84 85 86 87 88 >>
Time Temp. Humidity Pressure Rain* Wind** Luminosity Snow
1788093540 22.78° C 97% 1022.1 hPa 0 mm - 56 W/m² -
1788093236 22.78° C 98% 1022.1 hPa 0 mm - 46 W/m² -
1788092934 22.22° C 98% 1022 hPa 0 mm - 41 W/m² -
1788092629 22.22° C 98% 1022.1 hPa 0 mm - 32 W/m² -
1788092324 22.22° C 98% 1022.3 hPa 0 mm - 33 W/m² -
1788092024 22.22° C 99% 1022.3 hPa 0 mm - 51 W/m² -
1788091719 22.22° C 99% 1022.3 hPa 0 mm - 55 W/m² -
1788091414 22.22° C 99% 1022.1 hPa 0 mm - 41 W/m² -
1788091111 21.67° C 99% 1022 hPa 0 mm - 35 W/m² -
1788090807 21.67° C 99% 1022.2 hPa 0 mm - 33 W/m² -
1788090502 21.67° C 99% 1022.1 hPa 0 mm - 26 W/m² -
1788090198 21.11° C 99% 1022.2 hPa 0 mm - 28 W/m² -
1788089893 21.11° C 99% 1022.1 hPa 0 mm - 24 W/m² -
1788089587 21.11° C 99% 1022.4 hPa 0 mm - 20 W/m² -
1788089278 21.67° C 99% 1022.2 hPa 0 mm - 16 W/m² -
1788088974 21.11° C 99% 1022.4 hPa 0 mm - 16 W/m² -
1788088670 21.11° C 99% 1022.2 hPa 0 mm - 16 W/m² -
1788088364 21.11° C 99% 1022.1 hPa 0 mm - 15 W/m² -
1788088064 21.11° C 99% 1022.1 hPa 0 mm - 12 W/m² -
1788087761 21.11° C 99% 1022 hPa 0 mm - 10 W/m² -
1788087460 21.11° C 99% 1022.1 hPa 0 mm - 10 W/m² -
1788087156 21.11° C 99% 1022.3 hPa 0 mm - 7 W/m² -
1788086853 20.56° C 98% 1022.1 hPa 0 mm - 5 W/m² -
1788086549 20.56° C 98% 1021.9 hPa 0 mm - 3 W/m² -
1788086248 20.56° C 98% 1021.9 hPa 0 mm - 0 W/m² -

* Rain latest hour (hover to see other rain measurements)
** Current wind speed in m/s (hover to see current wind gust speed)